Time,TemperatureF,DewpointF,PressureIn,WindDirection,WindDirectionDegrees,WindSpeedMPH,WindSpeedGustMPH,Humidity,HourlyPrecipIn,Conditions,Clouds,dailyrainin,SoftwareType,DateUTC
2013-04-21 00:03:00,47.0,43.0,30.19,NW,307,0.0,0.0,86,0.00,,,0.09,,2013-04-21 04:03:00,
2013-04-21 00:12:00,46.0,42.0,30.19,NW,307,0.0,0.0,87,0.00,,,0.09,,2013-04-21 04:12:00,
2013-04-21 00:23:00,46.0,42.0,30.19,NW,307,0.0,0.0,87,0.00,,,0.09,,2013-04-21 04:23:00,
2013-04-21 00:33:00,46.0,43.0,30.19,NW,307,0.0,0.0,88,0.00,,,0.09,,2013-04-21 04:33:00,
2013-04-21 00:42:00,46.0,43.0,30.19,NW,307,0.0,0.0,88,0.00,,,0.09,,2013-04-21 04:42:00,
2013-04-21 00:53:00,46.0,43.0,30.19,NW,307,0.0,0.0,89,0.00,,,0.09,,2013-04-21 04:53:00,
2013-04-21 01:02:00,45.0,42.0,30.19,NW,307,0.0,0.0,89,0.00,,,0.07,,2013-04-21 05:02:00,
2013-04-21 01:12:00,45.0,42.0,30.19,NW,307,0.0,0.0,89,0.00,,,0.07,,2013-04-21 05:12:00,
2013-04-21 01:22:00,45.0,42.0,30.19,NW,307,0.0,0.0,90,0.00,,,0.07,,2013-04-21 05:22:00,
2013-04-21 01:32:00,45.0,43.0,30.19,NW,307,0.0,0.0,91,0.00,,,0.07,,2013-04-21 05:32:00,
2013-04-21 01:42:00,45.0,43.0,30.19,NW,307,0.0,0.0,91,0.00,,,0.07,,2013-04-21 05:42:00,
2013-04-21 01:52:00,44.0,42.0,30.19,NW,307,0.0,0.0,91,0.00,,,0.07,,2013-04-21 05:52:00,
2013-04-21 02:01:00,44.0,42.0,30.20,NW,307,0.0,0.0,92,0.00,,,0.02,,2013-04-21 06:01:00,
2013-04-21 02:12:00,44.0,42.0,30.20,NW,307,0.0,0.0,92,0.00,,,0.02,,2013-04-21 06:12:00,
2013-04-21 02:22:00,44.0,42.0,30.20,NW,307,0.0,0.0,92,0.00,,,0.02,,2013-04-21 06:22:00,
2013-04-21 02:32:00,44.0,42.0,30.19,NW,307,0.0,0.0,92,0.00,,,0.02,,2013-04-21 06:32:00,
2013-04-21 02:42:00,44.0,42.0,30.19,NW,307,0.0,0.0,92,0.00,,,0.02,,2013-04-21 06:42:00,
2013-04-21 02:52:00,44.0,42.0,30.20,NW,307,0.0,0.0,92,0.00,,,0.02,,2013-04-21 06:52:00,
2013-04-21 03:01:00,43.0,41.0,30.20,NW,307,0.0,0.0,92,0.00,,,0.00,,2013-04-21 07:01:00,
2013-04-21 03:12:00,43.0,41.0,30.20,NW,307,0.0,0.0,93,0.00,,,0.00,,2013-04-21 07:12:00,
2013-04-21 03:21:00,43.0,41.0,30.20,NW,307,0.0,0.0,93,0.00,,,0.00,,2013-04-21 07:21:00,
2013-04-21 03:32:00,43.0,41.0,30.21,NW,307,0.0,0.0,93,0.00,,,0.00,,2013-04-21 07:32:00,
2013-04-21 03:42:00,43.0,41.0,30.21,NW,307,0.0,0.0,93,0.00,,,0.00,,2013-04-21 07:42:00,
2013-04-21 03:52:00,43.0,41.0,30.22,NW,307,0.0,0.0,93,0.00,,,0.00,,2013-04-21 07:52:00,
2013-04-21 04:01:00,43.0,41.0,30.22,NW,307,0.0,0.0,94,0.00,,,0.00,,2013-04-21 08:01:00,
2013-04-21 04:12:00,43.0,41.0,30.22,NW,307,0.0,0.0,94,0.00,,,0.00,,2013-04-21 08:12:00,
2013-04-21 04:21:00,43.0,41.0,30.22,NW,307,0.0,0.0,94,0.00,,,0.00,,2013-04-21 08:21:00,
2013-04-21 04:32:00,43.0,41.0,30.22,NW,307,0.0,0.0,94,0.00,,,0.00,,2013-04-21 08:32:00,
2013-04-21 04:42:00,43.0,41.0,30.22,NW,307,0.0,0.0,94,0.00,,,0.00,,2013-04-21 08:42:00,
2013-04-21 04:52:00,42.0,40.0,30.22,NW,307,0.0,0.0,94,0.00,,,0.00,,2013-04-21 08:52:00,
2013-04-21 05:02:00,42.0,40.0,30.23,NW,307,0.0,0.0,94,0.00,,,0.00,,2013-04-21 09:02:00,
2013-04-21 05:12:00,42.0,40.0,30.23,NW,307,0.0,0.0,94,0.00,,,0.00,,2013-04-21 09:12:00,
2013-04-21 05:21:00,42.0,40.0,30.23,NW,307,0.0,0.0,94,0.00,,,0.00,,2013-04-21 09:21:00,
2013-04-21 05:32:00,42.0,41.0,30.23,NW,307,0.0,0.0,95,0.00,,,0.00,,2013-04-21 09:32:00,
2013-04-21 05:43:00,42.0,41.0,30.23,NW,307,0.0,0.0,95,0.00,,,0.00,,2013-04-21 09:43:00,
2013-04-21 05:53:00,42.0,41.0,30.23,NW,307,0.0,0.0,95,0.00,,,0.00,,2013-04-21 09:53:00,
2013-04-21 06:03:00,42.0,41.0,30.24,NW,307,0.0,0.0,95,0.00,,,0.00,,2013-04-21 10:03:00,
2013-04-21 06:12:00,42.0,41.0,30.24,NW,307,0.0,0.0,95,0.00,,,0.00,,2013-04-21 10:12:00,
2013-04-21 06:22:00,43.0,42.0,30.25,North,10,0.0,1.0,95,0.00,,,0.00,,2013-04-21 10:22:00,
2013-04-21 06:32:00,42.0,40.0,30.26,NNW,338,0.0,0.0,94,0.00,,,0.00,,2013-04-21 10:32:00,
2013-04-21 06:42:00,42.0,40.0,30.26,NNW,338,0.0,0.0,94,0.00,,,0.00,,2013-04-21 10:42:00,
2013-04-21 06:52:00,42.0,40.0,30.27,East,79,0.0,4.0,94,0.00,,,0.00,,2013-04-21 10:52:00,
2013-04-21 07:03:00,43.0,41.0,30.28,East,93,2.0,10.0,92,0.00,,,0.00,,2013-04-21 11:03:00,
2013-04-21 07:12:00,43.0,41.0,30.28,East,93,2.0,10.0,92,0.00,,,0.00,,2013-04-21 11:12:00,
2013-04-21 07:22:00,43.0,40.0,30.29,North,355,3.0,9.0,89,0.00,,,0.00,,2013-04-21 11:22:00,
2013-04-21 07:34:00,43.0,40.0,30.29,NE,40,0.0,10.0,89,0.00,,,0.00,,2013-04-21 11:34:00,
2013-04-21 07:42:00,43.0,40.0,30.29,NE,40,0.0,10.0,89,0.00,,,0.00,,2013-04-21 11:42:00,
2013-04-21 07:52:00,44.0,41.0,30.31,NE,45,1.0,7.0,88,0.00,,,0.00,,2013-04-21 11:52:00,
2013-04-21 08:02:00,44.0,40.0,30.32,NNE,18,1.0,10.0,87,0.00,,,0.00,,2013-04-21 12:02:00,
2013-04-21 08:12:00,45.0,41.0,30.33,NE,46,1.0,12.0,86,0.00,,,0.00,,2013-04-21 12:12:00,
2013-04-21 08:22:00,45.0,41.0,30.33,NE,46,1.0,12.0,86,0.00,,,0.00,,2013-04-21 12:22:00,
2013-04-21 08:32:00,46.0,41.0,30.33,NE,53,0.0,6.0,83,0.00,,,0.00,,2013-04-21 12:32:00,
2013-04-21 08:42:00,46.0,41.0,30.33,NE,53,0.0,6.0,83,0.00,,,0.00,,2013-04-21 12:42:00,
2013-04-21 08:52:00,47.0,41.0,30.34,NNE,29,0.0,11.0,81,0.00,,,0.00,,2013-04-21 12:52:00,
2013-04-21 09:01:00,48.0,41.0,30.34,East,83,1.0,13.0,77,0.00,,,0.00,,2013-04-21 13:01:00,
2013-04-21 09:12:00,48.0,41.0,30.34,East,83,1.0,13.0,77,0.00,,,0.00,,2013-04-21 13:12:00,
2013-04-21 09:22:00,49.0,40.0,30.34,NE,41,1.0,10.0,72,0.00,,,0.00,,2013-04-21 13:22:00,
2013-04-21 09:32:00,51.0,41.0,30.35,NE,49,5.0,14.0,69,0.00,,,0.00,,2013-04-21 13:32:00,
2013-04-21 09:42:00,51.0,41.0,30.35,NE,49,5.0,14.0,69,0.00,,,0.00,,2013-04-21 13:42:00,
2013-04-21 09:52:00,52.0,41.0,30.36,NE,37,4.0,13.0,66,0.00,,,0.00,,2013-04-21 13:52:00,
2013-04-21 10:02:00,53.0,42.0,30.36,ESE,110,5.0,15.0,65,0.00,,,0.00,,2013-04-21 14:02:00,
2013-04-21 10:11:00,53.0,42.0,30.36,ESE,110,5.0,15.0,65,0.00,,,0.00,,2013-04-21 14:11:00,
2013-04-21 10:21:00,54.0,42.0,30.36,SSE,153,1.0,16.0,64,0.00,,,0.00,,2013-04-21 14:21:00,
2013-04-21 10:32:00,54.0,41.0,30.37,NNE,14,6.0,15.0,62,0.00,,,0.00,,2013-04-21 14:32:00,
2013-04-21 10:42:00,54.0,41.0,30.37,NNE,14,6.0,15.0,62,0.00,,,0.00,,2013-04-21 14:42:00,
2013-04-21 10:52:00,55.0,41.0,30.37,NNE,16,3.0,11.0,59,0.00,,,0.00,,2013-04-21 14:52:00,
2013-04-21 11:02:00,56.0,40.0,30.38,ENE,70,3.0,16.0,55,0.00,,,0.00,,2013-04-21 15:02:00,
2013-04-21 11:11:00,56.0,40.0,30.38,ENE,70,3.0,16.0,55,0.00,,,0.00,,2013-04-21 15:11:00,
2013-04-21 11:22:00,57.0,41.0,30.38,SE,142,0.0,12.0,55,0.00,,,0.00,,2013-04-21 15:22:00,
2013-04-21 11:33:00,57.0,41.0,30.38,SSE,147,2.0,12.0,55,0.00,,,0.00,,2013-04-21 15:33:00,
2013-04-21 11:43:00,57.0,41.0,30.38,SSE,147,2.0,12.0,55,0.00,,,0.00,,2013-04-21 15:43:00,
2013-04-21 11:53:00,57.0,39.0,30.38,NE,37,4.0,15.0,51,0.00,,,0.00,,2013-04-21 15:53:00,
2013-04-21 12:03:00,58.0,39.0,30.38,North,360,1.0,12.0,49,0.00,,,0.00,,2013-04-21 16:03:00,
2013-04-21 12:12:00,58.0,39.0,30.38,North,360,1.0,12.0,49,0.00,,,0.00,,2013-04-21 16:12:00,
2013-04-21 12:23:00,58.0,40.0,30.38,East,81,5.0,16.0,52,0.00,,,0.00,,2013-04-21 16:23:00,
2013-04-21 12:33:00,59.0,40.0,30.37,ENE,62,0.0,10.0,49,0.00,,,0.00,,2013-04-21 16:33:00,
2013-04-21 12:42:00,59.0,40.0,30.37,ENE,62,0.0,10.0,49,0.00,,,0.00,,2013-04-21 16:42:00,
2013-04-21 12:53:00,60.0,40.0,30.37,East,86,3.0,10.0,47,0.00,,,0.00,,2013-04-21 16:53:00,
2013-04-21 13:02:00,60.0,40.0,30.37,ENE,72,0.0,10.0,48,0.00,,,0.00,,2013-04-21 17:02:00,
2013-04-21 13:12:00,61.0,40.0,30.37,NNE,23,0.0,9.0,46,0.00,,,0.00,,2013-04-21 17:12:00,
2013-04-21 13:23:00,61.0,40.0,30.37,NNE,23,0.0,9.0,46,0.00,,,0.00,,2013-04-21 17:23:00,
2013-04-21 13:32:00,60.0,40.0,30.37,North,360,1.0,14.0,47,0.00,,,0.00,,2013-04-21 17:32:00,
2013-04-21 13:42:00,60.0,40.0,30.37,North,360,1.0,14.0,47,0.00,,,0.00,,2013-04-21 17:42:00,
2013-04-21 13:52:00,61.0,40.0,30.36,SE,137,1.0,6.0,46,0.00,,,0.00,,2013-04-21 17:52:00,
2013-04-21 14:02:00,62.0,38.0,30.35,ENE,64,3.0,11.0,41,0.00,,,0.00,,2013-04-21 18:02:00,
2013-04-21 14:11:00,62.0,38.0,30.35,ENE,64,3.0,11.0,41,0.00,,,0.00,,2013-04-21 18:11:00,
2013-04-21 14:22:00,62.0,40.0,30.36,NE,45,1.0,9.0,45,0.00,,,0.00,,2013-04-21 18:22:00,
2013-04-21 14:32:00,62.0,40.0,30.35,ENE,59,1.0,9.0,45,0.00,,,0.00,,2013-04-21 18:32:00,
2013-04-21 14:42:00,62.0,40.0,30.35,ENE,59,1.0,9.0,45,0.00,,,0.00,,2013-04-21 18:42:00,
2013-04-21 14:52:00,61.0,41.0,30.35,NNE,31,0.0,13.0,48,0.00,,,0.00,,2013-04-21 18:52:00,
2013-04-21 15:02:00,62.0,39.0,30.35,ENE,66,1.0,17.0,43,0.00,,,0.00,,2013-04-21 19:02:00,
2013-04-21 15:12:00,62.0,39.0,30.35,ENE,66,1.0,17.0,43,0.00,,,0.00,,2013-04-21 19:12:00,
2013-04-21 15:22:00,63.0,39.0,30.34,SSE,155,2.0,10.0,41,0.00,,,0.00,,2013-04-21 19:22:00,
2013-04-21 15:32:00,64.0,39.0,30.34,ENE,60,4.0,10.0,39,0.00,,,0.00,,2013-04-21 19:32:00,
2013-04-21 15:42:00,64.0,39.0,30.34,ENE,60,4.0,10.0,39,0.00,,,0.00,,2013-04-21 19:42:00,
2013-04-21 15:52:00,62.0,36.0,30.34,ESE,109,1.0,13.0,38,0.00,,,0.00,,2013-04-21 19:52:00,
2013-04-21 16:02:00,63.0,41.0,30.32,East,87,3.0,13.0,44,0.00,,,0.00,,2013-04-21 20:02:00,
2013-04-21 16:11:00,63.0,41.0,30.32,East,87,3.0,13.0,44,0.00,,,0.00,,2013-04-21 20:11:00,
2013-04-21 16:22:00,63.0,38.0,30.32,ESE,105,4.0,8.0,39,0.00,,,0.00,,2013-04-21 20:22:00,
2013-04-21 16:32:00,62.0,42.0,30.32,NNE,18,1.0,6.0,47,0.00,,,0.00,,2013-04-21 20:32:00,
2013-04-21 16:42:00,62.0,42.0,30.32,NNE,18,1.0,6.0,47,0.00,,,0.00,,2013-04-21 20:42:00,
2013-04-21 16:52:00,62.0,40.0,30.32,SSE,168,3.0,9.0,44,0.00,,,0.00,,2013-04-21 20:52:00,
2013-04-21 17:02:00,61.0,39.0,30.32,East,79,0.0,10.0,44,0.00,,,0.00,,2013-04-21 21:02:00,
2013-04-21 17:12:00,61.0,40.0,30.32,ESE,112,4.0,11.0,45,0.00,,,0.00,,2013-04-21 21:12:00,
2013-04-21 17:22:00,61.0,40.0,30.32,ESE,112,4.0,11.0,45,0.00,,,0.00,,2013-04-21 21:22:00,
2013-04-21 17:33:00,62.0,39.0,30.32,East,99,4.0,10.0,42,0.00,,,0.00,,2013-04-21 21:33:00,
2013-04-21 17:43:00,62.0,39.0,30.32,East,99,4.0,10.0,42,0.00,,,0.00,,2013-04-21 21:43:00,
2013-04-21 17:53:00,61.0,40.0,30.32,SSE,153,0.0,7.0,46,0.00,,,0.00,,2013-04-21 21:53:00,
2013-04-21 18:03:00,60.0,37.0,30.32,WNW,301,1.0,7.0,43,0.00,,,0.00,,2013-04-21 22:03:00,
2013-04-21 18:12:00,60.0,39.0,30.32,SE,131,1.0,4.0,45,0.00,,,0.00,,2013-04-21 22:12:00,
2013-04-21 18:22:00,60.0,39.0,30.32,SE,131,1.0,4.0,45,0.00,,,0.00,,2013-04-21 22:22:00,
2013-04-21 18:33:00,61.0,39.0,30.32,ENE,71,1.0,7.0,44,0.00,,,0.00,,2013-04-21 22:33:00,
2013-04-21 18:43:00,61.0,39.0,30.32,ENE,71,1.0,7.0,44,0.00,,,0.00,,2013-04-21 22:43:00,
2013-04-21 18:53:00,60.0,39.0,30.32,ENE,70,3.0,9.0,46,0.00,,,0.00,,2013-04-21 22:53:00,
2013-04-21 19:02:00,59.0,38.0,30.32,ENE,62,2.0,6.0,46,0.00,,,0.00,,2013-04-21 23:02:00,
2013-04-21 19:12:00,59.0,38.0,30.32,ENE,62,2.0,6.0,46,0.00,,,0.00,,2013-04-21 23:12:00,
2013-04-21 19:22:00,58.0,38.0,30.32,East,90,0.0,5.0,48,0.00,,,0.00,,2013-04-21 23:22:00,
2013-04-21 19:32:00,58.0,39.0,30.32,East,91,0.0,5.0,49,0.00,,,0.00,,2013-04-21 23:32:00,
2013-04-21 19:42:00,58.0,39.0,30.32,East,91,0.0,5.0,49,0.00,,,0.00,,2013-04-21 23:42:00,
2013-04-21 19:52:00,57.0,39.0,30.32,ENE,72,0.0,10.0,51,0.00,,,0.00,,2013-04-21 23:52:00,
2013-04-21 20:01:00,56.0,40.0,30.33,ENE,68,0.0,0.0,54,0.00,,,0.00,,2013-04-22 00:01:00,
2013-04-21 20:12:00,56.0,40.0,30.33,ENE,68,0.0,0.0,54,0.00,,,0.00,,2013-04-22 00:12:00,
2013-04-21 20:22:00,55.0,39.0,30.34,East,87,0.0,4.0,54,0.00,,,0.00,,2013-04-22 00:22:00,
2013-04-21 20:32:00,54.0,39.0,30.34,SE,126,0.0,1.0,57,0.00,,,0.00,,2013-04-22 00:32:00,
2013-04-21 20:42:00,54.0,39.0,30.34,SE,126,0.0,1.0,57,0.00,,,0.00,,2013-04-22 00:42:00,
2013-04-21 20:52:00,54.0,40.0,30.35,NE,50,0.0,0.0,59,0.00,,,0.00,,2013-04-22 00:52:00,
2013-04-21 21:01:00,53.0,41.0,30.35,NE,51,0.0,0.0,63,0.00,,,0.00,,2013-04-22 01:01:00,
2013-04-21 21:12:00,53.0,41.0,30.35,NE,51,0.0,0.0,63,0.00,,,0.00,,2013-04-22 01:12:00,
2013-04-21 21:22:00,52.0,41.0,30.37,NE,54,0.0,0.0,65,0.00,,,0.00,,2013-04-22 01:22:00,
2013-04-21 21:32:00,51.0,41.0,30.37,NE,54,0.0,0.0,68,0.00,,,0.00,,2013-04-22 01:32:00,
2013-04-21 21:42:00,51.0,41.0,30.37,NE,54,0.0,0.0,68,0.00,,,0.00,,2013-04-22 01:42:00,
2013-04-21 21:52:00,50.0,41.0,30.37,NE,54,0.0,0.0,70,0.00,,,0.00,,2013-04-22 01:52:00,
2013-04-21 22:02:00,50.0,41.0,30.37,NE,54,0.0,0.0,72,0.00,,,0.00,,2013-04-22 02:02:00,
2013-04-21 22:11:00,50.0,41.0,30.37,NE,54,0.0,0.0,72,0.00,,,0.00,,2013-04-22 02:11:00,
2013-04-21 22:22:00,49.0,41.0,30.38,SSE,162,0.0,1.0,73,0.00,,,0.00,,2013-04-22 02:22:00,
2013-04-21 22:32:00,49.0,41.0,30.38,NE,49,0.0,2.0,73,0.00,,,0.00,,2013-04-22 02:32:00,
2013-04-21 22:42:00,49.0,41.0,30.38,NE,49,0.0,2.0,73,0.00,,,0.00,,2013-04-22 02:42:00,
2013-04-21 22:52:00,49.0,41.0,30.38,NE,49,0.0,0.0,74,0.00,,,0.00,,2013-04-22 02:52:00,
2013-04-21 23:02:00,48.0,40.0,30.38,ENE,74,0.0,3.0,74,0.00,,,0.00,,2013-04-22 03:02:00,
2013-04-21 23:11:00,48.0,40.0,30.38,ENE,74,0.0,3.0,74,0.00,,,0.00,,2013-04-22 03:11:00,
2013-04-21 23:22:00,48.0,40.0,30.37,ENE,60,0.0,4.0,74,0.00,,,0.00,,2013-04-22 03:22:00,
2013-04-21 23:33:00,48.0,40.0,30.37,ENE,67,0.0,1.0,74,0.00,,,0.00,,2013-04-22 03:33:00,
2013-04-21 23:43:00,48.0,40.0,30.37,ENE,67,0.0,1.0,74,0.00,,,0.00,,2013-04-22 03:43:00,
2013-04-21 23:53:00,48.0,40.0,30.37,East,88,0.0,3.0,73,0.00,,,0.00,,2013-04-22 03:53:00,